Weather History for KBIE - December, 2000

Change the Weather History Date:

Saturday, December 23, 2000

  Actual Average (KLNK) Record (KLNK)
Temperature  
Mean Temperature 12 °F 25 °F  
Max Temperature 17 °F 36 °F 71 °F (1964)
Min Temperature 5 °F 15 °F -23 °F (1989)
Degree Days  
Heating Degree Days 54 40  
Month to date heating degree days 863  
Since 1 July heating degree days 2124  
Cooling Degree Days 0 0  
Month to date cooling degree days 0  
Year to date cooling degree days 1173  
Moisture  
Dew Point -12 °F    
Average Humidity 37    
Maximum Humidity 100    
Minimum Humidity 14    
Precipitation  
Precipitation 0.00 in 0.03 in 0.47 in (1965)
Month to date precipitation 0.75  
Year to date precipitation 28.75  
Snow  
Snow 0.00 in 0.20 in - ()
Month to date snowfall 4.4  
Since 1 July snowfall 7.2  
Snow Depth -    
Sea Level Pressure  
Sea Level Pressure 30.32 in    
Wind  
Wind Speed 9 mph (NNW)    
Max Wind Speed 20 mph    
Max Gust Speed 23 mph    
Visibility 10 miles    
Events      
T = Trace of Precipitation, MM = Missing Value Source: NWS Daily Summary

Daily Weather History Graph

Daily Weather History Graph

Search for Another Location

Airport or City:

Trip Planner

Search our weather history database for the weather conditions in past years. The results will help you decide how hot, cold, wet, or windy it might be!

Date:

Astronomy

Dec. 23, 2000 Rise Set
Actual Time 7:47 AM CST 5:05 PM CST
Civil Twilight 7:16 AM CST 5:36 PM CST
Nautical Twilight 6:42 AM CST 6:10 PM CST
Astronomical Twilight 6:09 AM CST 6:43 PM CST
Moon 5:47 AM CST (12/23) 3:50 PM CST (12/23)
Length of Visible Light 10h 19m
Length of Day
9h 17m
Waning Crescent, 4% of the Moon is Illuminated
Dec 23
Waning Crescent
Dec 25
New
Jan 2
First Quarter
Jan 9
Full
Jan 16
Last Quarter

Hourly Weather History & Observations

Time (CST) Temp. Windchill Dew Point Humidity Pressure Visibility Wind Dir Wind Speed Gust Speed Precip Events Conditions
12:11 AM 17.6 °F - -5.8 °F 35% 30.10 in 10.0 mi Calm Calm - N/A   Overcast
12:30 AM 17.6 °F - -0.4 °F 45% 30.10 in 10.0 mi Calm Calm - N/A   Mostly Cloudy
1:50 AM 12.2 °F - -22.0 °F 20% 30.10 in 10.0 mi Calm Calm - N/A   Mostly Cloudy
2:11 AM 14.0 °F 6.5 °F -16.6 °F 25% 30.09 in 10.0 mi ESE 4.6 mph - N/A   Mostly Cloudy
2:50 AM 15.8 °F - -11.2 °F 30% 30.10 in 10.0 mi Calm Calm - N/A   Mostly Cloudy
3:11 AM 15.8 °F - -7.6 °F 35% 30.10 in 10.0 mi Calm Calm - N/A   Scattered Clouds
3:51 AM 10.4 °F -1.5 °F -4.0 °F 52% 30.12 in 10.0 mi NW 8.1 mph - N/A   Clear
4:10 AM 12.2 °F 2.9 °F 1.4 °F 62% 30.12 in 10.0 mi NW 5.8 mph - N/A   Clear
4:51 AM 10.4 °F -0.4 °F -20.2 °F 24% 30.13 in 10.0 mi NW 6.9 mph - N/A   Clear
5:13 AM 10.4 °F 0.8 °F -25.6 °F 18% 30.14 in 10.0 mi WNW 5.8 mph - N/A   Clear
5:34 AM 12.2 °F 0.7 °F -20.2 °F 22% 30.14 in 10.0 mi WNW 8.1 mph - N/A   Clear
6:10 AM 12.2 °F 2.9 °F -14.8 °F 29% 30.16 in 10.0 mi WNW 5.8 mph - N/A   Clear
6:31 AM 12.2 °F 1.7 °F -9.4 °F 38% 30.18 in 10.0 mi WNW 6.9 mph - N/A   Clear
6:50 AM 12.2 °F 1.7 °F -5.8 °F 45% 30.19 in 10.0 mi WNW 6.9 mph - N/A   Clear
7:10 AM 12.2 °F -2.5 °F -5.8 °F 45% 30.19 in 10.0 mi WNW 12.7 mph - N/A   Clear
7:49 AM 12.2 °F -3.7 °F 8.6 °F 85% 30.21 in 10.0 mi NW 15.0 mph - N/A   Mostly Cloudy
8:13 AM 15.8 °F -0.2 °F -25.6 °F 14% 30.23 in 10.0 mi NW 17.3 mph 21.9 mph N/A   Overcast
8:30 AM 15.8 °F -0.6 °F -18.4 °F 21% 30.24 in 10.0 mi NNW 18.4 mph - N/A   Overcast
9:29 AM 15.8 °F 0.9 °F -7.6 °F 35% 30.27 in 10.0 mi NNW 15.0 mph - N/A   Overcast
9:49 AM 14.0 °F -1.4 °F -5.8 °F 41% 30.28 in 10.0 mi NW 15.0 mph - N/A   Overcast
10:09 AM 14.0 °F -2.5 °F -2.2 °F 49% 30.30 in 10.0 mi NW 17.3 mph - N/A   Scattered Clouds
10:29 AM 14.0 °F -2.5 °F 1.4 °F 57% 30.31 in 10.0 mi NW 17.3 mph - N/A   Scattered Clouds
11:13 AM 12.2 °F -3.7 °F -14.8 °F 29% 30.33 in 10.0 mi NW 15.0 mph - N/A   Mostly Cloudy
11:31 AM 12.2 °F -5.3 °F -25.6 °F 17% 30.32 in 10.0 mi NW 18.4 mph - N/A   Scattered Clouds
12:29 PM 14.0 °F -2.0 °F -18.4 °F 22% 30.32 in 10.0 mi NNW 16.1 mph - N/A   Clear
12:52 PM 14.0 °F -1.4 °F -16.6 °F 25% 30.32 in 10.0 mi NNW 15.0 mph - N/A   Clear
1:09 PM 14.0 °F -1.4 °F -14.8 °F 27% 30.32 in 10.0 mi NNW 15.0 mph - N/A   Clear
1:29 PM 14.0 °F -2.5 °F -9.4 °F 35% 30.32 in 10.0 mi NNW 17.3 mph - N/A   Clear
1:57 PM 14.0 °F -2.0 °F -5.8 °F 41% 30.33 in 10.0 mi NNW 16.1 mph - N/A   Clear
2:09 PM 14.0 °F -3.0 °F -7.6 °F 38% 30.33 in 10.0 mi NNW 18.4 mph - N/A   Clear
2:31 PM 14.0 °F -2.5 °F -4.0 °F 45% 30.35 in 10.0 mi NNW 17.3 mph - N/A   Clear
3:09 PM 14.0 °F -2.5 °F -0.4 °F 53% 30.36 in 10.0 mi NW 17.3 mph - N/A   Clear
4:09 PM 12.2 °F -5.3 °F -25.6 °F 17% 30.40 in 10.0 mi NW 18.4 mph - N/A   Clear
4:31 PM 12.2 °F -5.3 °F -23.8 °F 19% 30.39 in 10.0 mi NNW 18.4 mph - N/A   Clear
5:11 PM 10.4 °F -5.4 °F -20.2 °F 24% 30.41 in 10.0 mi NNW 13.8 mph - N/A   Clear
5:31 PM 10.4 °F -6.0 °F -20.2 °F 24% 30.41 in 10.0 mi NNW 15.0 mph - N/A   Clear
5:49 PM 8.6 °F -7.0 °F -18.4 °F 28% 30.42 in 10.0 mi NNW 12.7 mph - N/A   Clear
6:11 PM 8.6 °F -5.5 °F -16.6 °F 31% 30.42 in 10.0 mi NNW 10.4 mph - N/A   Clear
6:31 PM 6.8 °F -6.9 °F -14.8 °F 37% 30.43 in 10.0 mi NNW 9.2 mph - N/A   Clear
6:49 PM 6.8 °F -6.9 °F -13.0 °F 40% 30.44 in 10.0 mi NNW 9.2 mph - N/A   Clear
7:11 PM 6.8 °F - -11.2 °F 44% 30.45 in 10.0 mi North - - N/A   Clear
7:29 PM 6.8 °F - -11.2 °F 44% 30.45 in 10.0 mi North - - N/A   Clear
8:09 PM 6.8 °F -10.0 °F -5.8 °F 56% 30.46 in 10.0 mi NNW 13.8 mph - N/A   Mostly Cloudy
8:29 PM 6.8 °F -10.7 °F -5.8 °F 56% 30.47 in 10.0 mi NNW 15.0 mph - N/A   Overcast
8:53 PM 8.6 °F -8.3 °F -4.0 °F 57% 30.47 in 10.0 mi North 15.0 mph - N/A   Overcast
9:14 PM 8.6 °F -8.3 °F -2.2 °F 62% 30.46 in 10.0 mi North 15.0 mph 19.6 mph N/A   Mostly Cloudy
9:29 PM 8.6 °F -7.0 °F -2.2 °F 62% 30.47 in 10.0 mi NNW 12.7 mph - N/A   Scattered Clouds
9:51 PM 8.6 °F -10.0 °F -2.2 °F 62% 30.49 in 10.0 mi NNW 18.4 mph - N/A   Clear
10:09 PM 8.6 °F -10.0 °F 8.6 °F 100% 30.49 in 10.0 mi North 18.4 mph - N/A   Clear
10:31 PM 6.8 °F -11.3 °F -31.0 °F 16% 30.49 in 10.0 mi North 16.1 mph 20.7 mph N/A   Clear
10:54 PM 6.8 °F -12.9 °F -29.2 °F 18% 30.49 in 10.0 mi North 19.6 mph 23.0 mph N/A   Clear
11:09 PM 6.8 °F -9.3 °F -29.2 °F 18% 30.49 in 10.0 mi North 12.7 mph - N/A   Clear
11:32 PM 6.8 °F -8.6 °F -27.4 °F 20% 30.50 in 10.0 mi North 11.5 mph - N/A   Clear
11:51 PM 5.0 °F -8.1 °F -27.4 °F 21% 30.50 in 10.0 mi North 8.1 mph - N/A   Clear